Location: Cambroso
(45.2833°N, 12.0850°E)
Time: 15:51:06
(UTC+00:00)

Cosmos 1818 - Pass Details

Date: 21 January 2021
Orbit: 773 x 800 km, 65.0° (Epoch: 25 February)

Event Time Altitude Azimuth Distance (km) Brightness Sun altitude
Rises 17:53:15 0° 220° (SW) 3,265 7.5 -19.1°
Reaches altitude 10° 17:55:39 10° 222° (SW) 2,344 6.7 -19.5°
Maximum altitude 18:01:03 72° 307° (NW) 833 3.7 -20.4°
Enters shadow 18:04:16 25° 28° (NNE) 1,558 4.8 -21.0°
